Location: Waning Moon II Observatory
(30.3730°N, 89.7620°W)
Time: 00:01:39
(UTC-05:00)

Cosmos 1825 Rocket - Visible Passes

Search period start: 23 May 2017 00:00
Search period end: 02 June 2017 00:00
Orbit: 603 x 632 km, 82.5° (Epoch: 21 May)

Date Brightness Start Highest point End Pass type
(mag) Time Alt. Az. Time Alt. Az. Time Alt. Az.
23 May 6.5 23:28:45 10° NNE 23:28:45 10° NNE 23:28:47 10° NNE visible
24 May 6.3 23:45:22 14° N 23:45:22 14° N 23:45:59 10° N visible
26 May 6.4 00:01:58 15° N 00:01:58 15° N 00:02:47 10° N visible
27 May 6.5 00:18:32 13° NNW 00:18:32 13° NNW 00:19:08 10° NNW visible
27 May 6.0 22:57:59 14° NNE 22:57:59 14° NNE 22:58:43 10° NNE visible
28 May 5.8 23:14:31 20° N 23:14:31 20° N 23:15:55 10° N visible
29 May 5.8 23:31:02 22° NNW 23:31:02 22° NNW 23:32:42 10° N visible
30 May 5.9 22:10:25 12° NE 22:10:25 12° NE 22:10:55 10° NE visible
30 May 6.1 23:47:32 17° NW 23:47:32 17° NW 23:49:02 10° NNW visible
31 May 5.3 22:26:53 22° NE 22:26:53 22° NE 22:28:40 10° NNE visible
01 Jun 6.5 00:03:59 11° NW 00:03:59 11° NW 00:04:22 10° NW visible
01 Jun 4.8 22:43:19 34° NNE 22:43:19 34° NNE 22:45:51 10° N visible
